Stations météo

réclame
Mon MeteoGroup
Aguilas, Espagne (8432): Température de l'air & dewpoint: 11.12.2018 02:00:00 - 17.12.2018 02:00:00 (CET)Aguilas, Espagne (8432): Vitesse du vent & gusts: 11.12.2018 02:00:00 - 17.12.2018 02:00:00 (CET)Aguilas, Espagne (8432): Direction du vent: 11.12.2018 02:00:00 - 17.12.2018 02:00:00 (CET)Aguilas, Espagne (8432): reduced air pressure: 11.12.2018 02:00:00 - 17.12.2018 02:00:00 (CET)Aguilas, Espagne (8432): visibility: 11.12.2018 02:00:00 - 17.12.2018 02:00:00 (CET)Aguilas, Espagne (8432): Ensoleillement: 11.12.2018 02:00:00 - 17.12.2018 02:00:00 (CET)Aguilas, Espagne (8432): Quantités de précipitations: 11.12.2018 02:00:00 - 17.12.2018 02:00:00 (CET)
Date & Time tt [°C] td [°C] ff [km/h] ff [knt] fx [km/h] fx [knt] dd ppp [hPa] vv [km] sd [min] rr [mm]
17.12.2018 02:00:00 - - - - - - - - - - -
17.12.2018 01:00:00 17,2 2,3 21 12 45 25 WNW 1024,9 20 0 -
17.12.2018 00:00:00 18,1 3,6 27 15 54 29 NW 1024,6 20 0 0,0
16.12.2018 23:00:00 18,7 4,5 26 14 55 30 NNW 1023,9 20 0 0,0
16.12.2018 22:00:00 18,8 6,5 29 16 58 31 WNW 1023,3 20 0 0,0
16.12.2018 21:00:00 19,8 6,5 29 16 54 29 NW 1022,9 20 0 0,0
16.12.2018 20:00:00 18,7 7,7 23 13 46 25 W 1022,2 20 0 0,0
16.12.2018 19:00:00 19,8 6,8 24 13 53 29 WNW 1021,4 20 0 -
16.12.2018 18:00:00 20,8 7,0 29 16 62 34 WNW 1020,6 20 10 0,0
16.12.2018 17:00:00 23,0 6,2 30 16 55 30 W 1019,9 20 58 0,0
16.12.2018 16:00:00 24,2 5,5 26 14 48 26 W 1019,5 20 60 0,0
16.12.2018 15:00:00 25,2 -0,7 24 13 58 31 W 1019,0 20 60 0,0
16.12.2018 14:00:00 23,5 -2,2 25 13 51 28 W 1019,7 20 60 0,0
16.12.2018 13:00:00 19,1 10,9 5 3 17 9 SW 1020,6 20 60 -
16.12.2018 12:00:00 18,5 9,0 6 3 14 8 SW 1021,4 20 60 0,0
16.12.2018 11:00:00 18,1 8,9 3 1 6 3 S 1021,6 20 60 0,0
16.12.2018 10:00:00 14,4 9,0 4 2 8 4 N 1021,4 20 50 0,0
16.12.2018 09:00:00 10,5 6,8 4 2 8 5 NNW 1020,8 20 0 0,0
16.12.2018 08:00:00 9,8 5,8 1 1 8 5 NNE 1021,0 20 0 0,0
16.12.2018 07:00:00 11,1 6,2 3 1 10 5 NE 1021,0 20 0 -
16.12.2018 06:00:00 11,5 6,2 6 3 10 6 NE 1020,9 20 0 0,0
16.12.2018 05:00:00 11,8 6,7 8 4 14 8 NE 1021,3 20 0 0,0
16.12.2018 04:00:00 10,7 6,4 4 2 8 4 NE 1021,9 20 0 0,0
16.12.2018 03:00:00 10,4 5,3 1 1 6 3 E 1022,3 20 0 0,0
16.12.2018 02:00:00 12,0 5,5 5 3 11 6 N 1022,6 20 0 0,0
16.12.2018 01:00:00 11,6 4,1 1 1 8 4 NW 1023,4 20 0 -
16.12.2018 00:00:00 11,3 3,8 3 2 9 5 NNE 1024,1 20 0 0,0
15.12.2018 23:00:00 12,5 3,4 5 3 10 5 N 1024,4 20 0 0,0
15.12.2018 22:00:00 12,1 4,1 5 3 11 6 NNW 1024,6 20 0 0,0
15.12.2018 21:00:00 13,3 3,4 4 2 10 6 NNE 1024,8 20 0 0,0
15.12.2018 20:00:00 13,8 5,0 4 2 10 5 NNE 1024,7 20 0 0,0
15.12.2018 19:00:00 15,0 5,8 6 3 11 6 ENE 1024,4 20 0 -
15.12.2018 18:00:00 16,5 6,8 4 2 7 4 ENE 1024,3 20 10 0,0
15.12.2018 17:00:00 17,9 6,7 4 2 11 6 S 1024,3 20 60 0,0
15.12.2018 16:00:00 18,8 6,5 5 3 12 6 S 1024,1 20 60 0,0
15.12.2018 15:00:00 18,9 0,0 7 4 14 7 SSW 1024,4 20 60 0,0
15.12.2018 14:00:00 18,3 3,4 7 4 12 7 SSW 1024,8 20 60 0,0
15.12.2018 13:00:00 17,7 -0,5 5 3 13 7 S 1025,6 20 60 -
15.12.2018 12:00:00 17,6 0,2 4 2 11 6 S 1026,4 20 60 0,0
15.12.2018 11:00:00 17,1 -0,3 3 1 8 4 SSW 1026,8 20 60 0,0
15.12.2018 10:00:00 15,0 -0,3 3 2 14 8 WSW 1026,3 20 52 0,0
15.12.2018 09:00:00 11,8 -2,5 13 7 25 13 N 1025,9 20 0 0,0
15.12.2018 08:00:00 6,9 0,2 4 2 9 5 WSW 1025,6 20 0 0,0
15.12.2018 07:00:00 7,3 -0,5 4 2 12 6 NNE 1025,5 20 0 -
15.12.2018 06:00:00 7,3 -1,2 6 4 14 8 WNW 1025,0 20 0 0,0
15.12.2018 05:00:00 8,4 -1,2 9 5 15 8 N 1024,7 20 0 0,0
15.12.2018 04:00:00 9,4 -1,4 3 2 17 9 NW 1024,9 20 0 0,0
15.12.2018 03:00:00 9,9 -1,0 9 5 19 10 WNW 1025,0 20 0 0,0
15.12.2018 02:00:00 10,1 -0,5 10 5 21 11 NW 1024,6 20 0 0,0
15.12.2018 01:00:00 9,5 0,4 9 5 20 11 NW 1025,1 20 0 -
15.12.2018 00:00:00 9,5 0,2 4 2 14 7 W 1025,4 20 0 0,0
14.12.2018 23:00:00 10,0 0,4 9 5 22 12 W 1025,4 20 0 0,0
14.12.2018 22:00:00 11,5 0,2 16 9 26 14 W 1024,7 20 0 0,0
14.12.2018 21:00:00 14,0 -2,0 5 3 37 20 NW 1024,4 20 0 0,0
14.12.2018 20:00:00 14,8 -2,7 13 7 39 21 NNW 1023,2 20 0 0,0
14.12.2018 19:00:00 14,4 -1,7 11 6 30 16 NNW 1022,5 20 0 -
14.12.2018 18:00:00 15,5 -2,0 15 8 32 17 NW 1021,8 20 11 0,0
14.12.2018 17:00:00 17,8 -2,5 6 3 29 16 N 1021,4 20 60 0,0
14.12.2018 16:00:00 18,2 -2,7 18 10 41 22 NNW 1020,3 20 60 0,0
14.12.2018 15:00:00 18,2 -2,7 18 10 51 28 NW 1019,8 20 60 0,0
14.12.2018 14:00:00 18,0 -1,7 19 11 53 28 NNW 1020,0 20 60 0,0
14.12.2018 13:00:00 17,4 -2,2 20 11 48 26 NNW 1019,7 20 60 -
14.12.2018 12:00:00 16,3 -2,2 23 12 64 35 NW 1019,4 20 60 0,0
14.12.2018 11:00:00 14,6 -2,5 34 18 67 36 NNW 1018,6 20 46 0,0
14.12.2018 10:00:00 14,2 -2,7 30 16 64 35 NNW 1017,8 20 53 0,0
14.12.2018 09:00:00 13,6 -3,3 29 16 61 33 NNW 1016,9 20 0 0,0
14.12.2018 08:00:00 12,4 -2,7 24 13 57 31 NNW 1016,0 20 0 0,0
14.12.2018 07:00:00 11,6 -1,0 35 19 55 30 NW 1014,9 20 0 -
14.12.2018 06:00:00 11,8 -1,7 16 9 36 20 NW 1014,9 20 0 0,0
14.12.2018 05:00:00 11,1 0,0 21 11 36 20 WNW 1014,6 20 0 0,0
14.12.2018 04:00:00 12,2 -0,3 23 12 42 23 WNW 1014,4 20 0 0,0
14.12.2018 03:00:00 12,7 -0,5 27 15 50 27 NW 1013,2 20 0 0,0
14.12.2018 02:00:00 11,9 0,4 18 10 29 16 W 1012,9 20 0 0,0
14.12.2018 01:00:00 12,9 0,2 18 10 39 21 W 1012,5 20 0 -
14.12.2018 00:00:00 12,9 0,0 7 4 31 17 WSW 1011,8 20 0 0,0
13.12.2018 23:00:00 14,1 -2,0 22 12 53 29 NW 1011,1 20 0 0,0
13.12.2018 22:00:00 13,6 -0,7 18 10 44 24 NW 1010,4 20 0 0,0
13.12.2018 21:00:00 11,6 1,5 8 4 42 23 NW 1010,8 20 0 0,0
13.12.2018 20:00:00 12,6 1,5 19 10 33 18 NW 1010,0 20 0 0,0
13.12.2018 19:00:00 13,0 1,7 13 7 37 20 WNW 1009,2 20 0 -
13.12.2018 18:00:00 13,6 2,3 11 6 42 23 WNW 1008,7 20 10 0,0
13.12.2018 17:00:00 15,6 1,3 19 11 58 31 W 1007,7 20 60 0,0
13.12.2018 16:00:00 16,3 1,3 30 16 63 34 WNW 1007,2 20 60 0,0
13.12.2018 15:00:00 15,7 3,8 38 21 70 38 WNW 1006,8 20 31 0,0
13.12.2018 14:00:00 13,2 8,5 19 10 42 23 WNW 1008,0 20 0 1,8
13.12.2018 13:00:00 16,7 9,4 8 4 15 8 WNW 1008,5 20 39 -
13.12.2018 12:00:00 16,9 9,6 9 5 14 8 E 1008,5 20 38 0,0
13.12.2018 11:00:00 14,7 8,9 4 2 14 8 NE 1010,8 20 0 0,0
13.12.2018 10:00:00 13,2 9,8 3 2 10 5 WNW 1012,1 11 0 0,2
13.12.2018 09:00:00 12,4 8,9 5 3 9 5 N 1013,3 12 0 0,4
13.12.2018 08:00:00 12,5 8,0 3 2 9 5 NW 1013,4 12 0 0,2
13.12.2018 07:00:00 12,3 6,5 4 2 9 5 N 1013,6 18 0 -
13.12.2018 06:00:00 12,0 6,8 6 4 10 5 N 1013,8 20 0 0,0
13.12.2018 05:00:00 11,8 5,6 2 1 16 9 N 1014,3 20 0 0,0
13.12.2018 04:00:00 12,2 5,3 10 5 20 11 NNW 1014,9 20 0 0,0
13.12.2018 03:00:00 11,8 6,2 10 5 17 9 NW 1015,2 20 0 0,0
13.12.2018 02:00:00 12,7 7,8 5 3 11 6 NNE 1015,9 20 0 0,0
13.12.2018 01:00:00 13,2 7,0 3 2 9 5 N 1016,5 20 0 -
13.12.2018 00:00:00 12,7 7,4 6 3 10 5 NNW 1017,3 17 0 0,0
12.12.2018 23:00:00 11,7 6,4 2 1 9 5 SSE 1017,5 20 0 0,0
12.12.2018 22:00:00 12,1 7,0 5 3 10 6 N 1017,9 20 0 0,0
12.12.2018 21:00:00 12,7 8,1 4 2 8 4 NNE 1017,9 18 0 0,0
12.12.2018 20:00:00 12,6 8,5 1 1 6 4 NNW 1018,2 14 0 0,0
12.12.2018 19:00:00 14,0 9,2 1 1 6 3 ENE 1018,4 11 0 -
12.12.2018 18:00:00 16,4 11,1 2 1 6 3 SW 1018,1 15 10 0,0
12.12.2018 17:00:00 18,5 11,3 3 2 11 6 WSW 1018,2 20 60 0,0
12.12.2018 16:00:00 18,5 10,5 6 4 15 8 SW 1018,1 20 60 0,0
12.12.2018 15:00:00 19,1 9,3 9 5 15 8 SSW 1018,6 17 60 0,0
12.12.2018 14:00:00 - - - - - - - - - - -
12.12.2018 13:00:00 - - - - - - - - - - -
12.12.2018 12:00:00 18,0 10,9 5 3 10 5 S 1021,2 16 60 0,0
12.12.2018 11:00:00 18,1 11,4 2 1 7 4 SSW 1021,7 18 60 0,0
12.12.2018 10:00:00 15,9 9,0 0 0 9 5 N 1021,6 20 54 0,0
12.12.2018 09:00:00 12,7 7,1 7 4 11 6 NE 1021,6 20 0 0,0
12.12.2018 08:00:00 10,0 6,4 5 3 10 5 NE 1021,0 20 0 0,0
12.12.2018 07:00:00 10,9 6,8 4 2 11 6 N 1020,4 20 0 -
12.12.2018 06:00:00 11,6 7,3 7 4 12 6 NNE 1020,2 20 0 0,0
12.12.2018 05:00:00 12,2 8,8 5 3 11 6 NE 1020,5 20 0 0,0
12.12.2018 04:00:00 11,7 8,8 4 2 9 5 NE 1020,5 18 0 0,0
12.12.2018 03:00:00 10,9 8,1 2 1 8 5 NE 1020,7 15 0 0,0
12.12.2018 02:00:00 11,1 8,1 1 1 10 5 N 1020,5 14 0 0,0
12.12.2018 01:00:00 12,0 9,2 6 3 10 6 ENE 1020,9 17 0 -
12.12.2018 00:00:00 11,9 8,9 2 1 7 4 E 1021,7 11 0 0,0
11.12.2018 23:00:00 12,9 9,7 3 2 9 5 NE 1021,6 14 0 0,0
11.12.2018 22:00:00 13,2 9,3 4 2 8 5 NNW 1021,6 13 0 0,0
11.12.2018 21:00:00 15,1 10,5 5 3 8 5 NE 1021,5 16 0 0,0
11.12.2018 20:00:00 15,5 10,5 5 3 13 7 NNE 1021,8 18 0 0,0
11.12.2018 19:00:00 15,7 10,9 6 3 11 6 NE 1021,7 19 0 -
11.12.2018 18:00:00 15,4 10,5 4 2 11 6 E 1021,7 20 4 0,0
11.12.2018 17:00:00 16,4 10,9 5 3 14 8 SSW 1021,7 20 16 0,0
11.12.2018 16:00:00 17,7 10,5 8 4 15 8 SSW 1021,7 20 60 0,0
11.12.2018 15:00:00 17,9 10,5 4 2 18 10 SSW 1021,8 20 60 0,0
11.12.2018 14:00:00 17,4 10,3 9 5 16 9 SSW 1022,4 20 60 0,0
11.12.2018 13:00:00 17,4 10,0 7 4 17 9 SSW 1023,2 18 60 -
11.12.2018 12:00:00 17,5 9,7 7 4 13 7 SSW 1024,2 20 60 0,0
11.12.2018 11:00:00 17,5 10,6 4 2 8 5 SSW 1024,6 18 60 0,0
11.12.2018 10:00:00 14,9 10,5 1 1 6 3 NW 1024,5 20 55 0,0
11.12.2018 09:00:00 10,2 7,8 1 1 4 2 NE 1024,1 16 0 0,0
11.12.2018 08:00:00 9,1 6,4 1 1 8 4 NNE 1024,0 16 0 0,0
11.12.2018 07:00:00 9,4 6,7 3 1 6 3 NNW 1024,1 18 0 -
11.12.2018 06:00:00 10,2 7,4 3 2 7 4 NE 1024,0 20 0 0,0
11.12.2018 05:00:00 10,9 8,0 3 2 9 5 N 1024,6 19 0 0,0
11.12.2018 04:00:00 10,3 7,4 5 3 8 5 N 1024,9 20 0 0,0
11.12.2018 03:00:00 9,7 6,4 2 1 6 4 NNE 1025,3 20 0 0,0
11.12.2018 02:00:00 10,2 6,4 2 1 8 5 NNE 1025,4 20 0 0,0

tt = Température de l'air
td = dewpoint
ff = Vitesse du vent
fx = gusts
dd = Direction du vent
ppp = reduced air pressure
vv = visibility
sd = Ensoleillement
rr = Quantités de précipitations

stations d'obs. à proximité